Location: B�rgermoos
(47.6500°N, 9.0667°E)
Time: 00:25:28
(UTC+00:00)

Tiros 1 - Pass Details

Date: 09 August 2021
Orbit: 630 x 663 km, 48.4° (Epoch: 16 September)

Event Time Altitude Azimuth Distance (km) Brightness Sun altitude
Rises 18:06:35 0° 281° (W) 2,991 13.1 5.4°
Reaches altitude 10° 18:08:56 10° 281° (W) 2,074 12.4 5.0°
Maximum altitude 18:13:45 87° 193° (SSW) 661 7.3 4.2°
Drops below altitude 10° 18:18:29 10° 105° (ESE) 2,051 9.1 3.5°
Sets 18:20:49 0° 105° (ESE) 2,955 9.8 3.1°
